This demonstration page uses our WeatherBlox Daily Observations layout. Learn more.

39.29038, -76.61219

Hourly Observations for July 10, 2017

Temp ( °F °C ) Dew Point ( °F °C ) Humidity (%) Winds ( mph kmh ) Pressure ( in mb ) Visibility ( mi km ) Precip ( " mm )
12:54 am 00:54 undefined 78 25.6 58 14.4 50 50 undefined N/A 30.06 1018 N/A 0 0
1:54 am 01:54 undefined 77 25 58 14.4 52 52 undefined N/A 30.06 1018 N/A 0 0
2:54 am 02:54 undefined 76 24.4 58 14.4 54 54 undefined N/A 30.06 1018 N/A 0 0
3:54 am 03:54 undefined 76 24.4 58 14.4 54 54 undefined N/A 30.06 1018 N/A 0 0
4:54 am 04:54 undefined 76 24.4 60 15.6 58 58 undefined N/A 30.03 1017 N/A 0 0
5:54 am 05:54 undefined 76 24.4 62 16.7 62 62 undefined N/A 30.03 1017 N/A 0 0
6:54 am 06:54 undefined 76 24.4 63 17.2 64 64 undefined N/A 30.03 1017 N/A 0 0
7:54 am 07:54 undefined 76 24.4 66 18.9 72 72 undefined N/A 30.03 1017 N/A 0 0
8:54 am 08:54 undefined 78 25.6 67 19.4 69 69 undefined N/A 30.06 1018 N/A 0 0
9:54 am 09:54 undefined 81 27.2 69 20.6 67 67 undefined N/A 30.06 1018 N/A 0 0
10:54 am 10:54 undefined 84 28.9 68 20 59 59 undefined N/A 30.06 1018 N/A 0 0
11:54 am 11:54 undefined 87 30.6 59 15 39 39 undefined N/A 30.03 1017 N/A 0 0
12:54 pm 12:54 undefined 88 31.1 60 15.6 39 39 undefined N/A 30.03 1017 N/A 0 0
1:54 pm 13:54 undefined 91 32.8 63 17.2 39 39 undefined N/A 30 1016 N/A 0 0
2:54 pm 14:54 undefined 90 32.2 61 16.1 38 38 undefined N/A 29.97 1015 N/A 0 0
3:54 pm 15:54 undefined 90 32.2 60 15.6 37 37 undefined N/A 29.97 1015 N/A 0 0
4:54 pm 16:54 undefined 90 32.2 68 20 48 48 undefined N/A 29.94 1014 N/A 0 0
5:54 pm 17:54 undefined 87 30.6 70 21.1 57 57 undefined N/A 29.94 1014 N/A 0 0
6:54 pm 18:54 undefined 87 30.6 71 21.7 59 59 undefined N/A 29.94 1014 N/A 0 0
7:54 pm 19:54 undefined 86 30 71 21.7 61 61 undefined N/A 29.94 1014 N/A 0 0
8:54 pm 20:54 undefined 85 29.4 72 22.2 65 65 undefined N/A 29.94 1014 N/A 0 0
9:54 pm 21:54 undefined 83 28.3 71 21.7 67 67 undefined N/A 29.97 1015 N/A 0 0
10:54 pm 22:54 undefined 83 28.3 71 21.7 67 67 undefined N/A 29.94 1014 N/A 0 0
11:54 pm 23:54 undefined 81 27.2 70 21.1 69 69 undefined N/A 29.94 1014 N/A 0 0

Powered by AerisWeather